Вернуться в каталог

EUTE 8 WEST C

HB 6

АктивенСвязьGEO
NORAD 27499·PAYLOAD·🇪🇺 EU

Запущен Aug 21, 2002 с Cape Canaveral Space Force Station

Loading…

TLE

СвежийSource: Space-Track

Эпоха: Sep 14, 2026, 10:46 UTC

1 27499U 02038A   26257.44928461 -.00000013  00000-0  00000-0 0  9999
2 27499   8.7792  61.6186 0002088 166.8944  11.1230  0.99319331 51822

Отслеживайте EUTE 8 WEST C в реальном времени с AllMySat

Download on the App Store